Weather History for Bentonville, AR

Change the Weather History Date:

Tuesday, July 24, 2012

  Actual Average Record
Temperature  
Mean Temperature 86 °F -  
Max Temperature 98 °F 89 °F 102 °F (1963)
Min Temperature 75 °F 66 °F 57 °F (1990)
Cooling Degree Days 22    
Growing Degree Days 36 (Base 50)    
Moisture  
Dew Point 65 °F    
Average Humidity 50    
Maximum Humidity 78    
Minimum Humidity 30    
Precipitation  
Precipitation 0.00 in - - ()
Sea Level Pressure  
Sea Level Pressure 30.03 in    
Wind  
Wind Speed 7 mph (SSW)    
Max Wind Speed 13 mph    
Max Gust Speed 18 mph    
Visibility 10 miles    
Events      
Averages and records for this station are not official NWS values.
T = Trace of Precipitation, MM = Missing Value Source: NWS Daily Summary

Daily Weather History Graph

Daily Weather History Graph

Search for Another Location

Airport:

Trip Planner

Search our weather history database for the weather conditions in past years. The results will help you decide how hot, cold, wet, or windy it might be!

Date:

Astronomy

Jul. 24, 2012 Rise Set
Actual Time 6:17 AM CDT 8:28 PM CDT
Civil Twilight 5:48 AM CDT 8:57 PM CDT
Nautical Twilight 5:13 AM CDT 9:32 PM CDT
Astronomical Twilight 4:34 AM CDT 10:11 PM CDT
Moon 12:03 PM CDT (7/24) 11:31 PM CDT (7/24)
Length of Visible Light 15h 08m
Length of Day
14h 11m
Waxing Crescent, 32% of the Moon is Illuminated
Jul 24
Waxing Crescent
Jul 26
First Quarter
Aug 1
Full
Aug 9
Last Quarter
Aug 17
New

Hourly Weather History & Observations

Time (CDT) Temp. Heat Index Dew Point Humidity Pressure Visibility Wind Dir Wind Speed Gust Speed Precip Events Conditions
12:15 AM 84.2 °F 84.4 °F 60.8 °F 45% 30.08 in 10.0 mi South 6.9 mph - N/A   Clear
12:35 AM 84.2 °F 84.4 °F 60.8 °F 45% 30.08 in 10.0 mi South 6.9 mph - N/A   Clear
12:55 AM 84.2 °F 85.0 °F 62.6 °F 48% 30.08 in 10.0 mi South 5.8 mph - N/A   Clear
1:15 AM 82.4 °F 83.4 °F 62.6 °F 51% 30.08 in 10.0 mi South 5.8 mph - N/A   Clear
1:35 AM 82.4 °F 83.4 °F 62.6 °F 51% 30.08 in 10.0 mi South 3.5 mph - N/A   Clear
1:55 AM 80.6 °F 81.8 °F 62.6 °F 54% 30.08 in 10.0 mi South 3.5 mph - N/A   Clear
2:15 AM 80.6 °F 81.8 °F 62.6 °F 54% 30.09 in 10.0 mi South 3.5 mph - N/A   Clear
2:35 AM 78.8 °F - 62.6 °F 57% 30.08 in 10.0 mi South 4.6 mph - N/A   Clear
2:55 AM 78.8 °F - 64.4 °F 61% 30.08 in 10.0 mi South 4.6 mph - N/A   Clear
3:15 AM 78.8 °F - 64.4 °F 61% 30.07 in 10.0 mi South 4.6 mph - N/A   Clear
3:35 AM 78.8 °F - 64.4 °F 61% 30.07 in 10.0 mi SSW 6.9 mph - N/A   Clear
3:55 AM 78.8 °F - 66.2 °F 65% 30.08 in 10.0 mi SSW 5.8 mph - N/A   Clear
4:15 AM 78.8 °F - 66.2 °F 65% 30.08 in 10.0 mi SSW 5.8 mph - N/A   Clear
4:35 AM 77.0 °F - 66.2 °F 69% 30.08 in 10.0 mi SSW 5.8 mph - N/A   Clear
4:55 AM 77.0 °F - 66.2 °F 69% 30.08 in 10.0 mi SSW 5.8 mph - N/A   Clear
5:15 AM 77.0 °F - 66.2 °F 69% 30.08 in 10.0 mi SSW 5.8 mph - N/A   Clear
5:35 AM 75.2 °F - 66.2 °F 73% 30.08 in 10.0 mi SSW 4.6 mph - N/A   Clear
5:55 AM 75.2 °F - 66.2 °F 73% 30.09 in 10.0 mi South 3.5 mph - N/A   Clear
6:15 AM 75.2 °F - 68.0 °F 78% 30.08 in 10.0 mi SSW 4.6 mph - N/A   Clear
6:35 AM 75.2 °F - 68.0 °F 78% 30.09 in 10.0 mi SSW 4.6 mph - N/A   Clear
6:55 AM 75.2 °F - 68.0 °F 78% 30.09 in 10.0 mi South 4.6 mph - N/A   Clear
7:15 AM 77.0 °F - 68.0 °F 74% 30.09 in 10.0 mi South 5.8 mph - N/A   Clear
7:35 AM 78.8 °F - 69.8 °F 74% 30.10 in 10.0 mi SSW 4.6 mph - N/A   Clear
7:55 AM 78.8 °F - 69.8 °F 74% 30.10 in 10.0 mi SSW 5.8 mph - N/A   Clear
8:15 AM 80.6 °F 83.9 °F 69.8 °F 70% 30.10 in 10.0 mi SSW 6.9 mph - N/A   Clear
8:35 AM 82.4 °F 86.3 °F 69.8 °F 66% 30.10 in 10.0 mi SSW 10.4 mph - N/A   Clear
8:55 AM 82.4 °F 86.3 °F 69.8 °F 66% 30.10 in 10.0 mi WSW 11.5 mph 16.1 mph N/A   Clear
9:15 AM 84.2 °F 87.3 °F 68.0 °F 58% 30.10 in 10.0 mi SW 6.9 mph - N/A   Clear
9:35 AM 84.2 °F 87.3 °F 68.0 °F 58% 30.09 in 10.0 mi SSW 10.4 mph - N/A   Clear
9:55 AM 86.0 °F 88.2 °F 66.2 °F 51% 30.09 in 10.0 mi SW 10.4 mph - N/A   Clear
10:15 AM 87.8 °F 90.4 °F 66.2 °F 49% 30.09 in 10.0 mi SW 11.5 mph - N/A   Clear
10:35 AM 87.8 °F 90.4 °F 66.2 °F 49% 30.09 in 10.0 mi SSW 10.4 mph 16.1 mph N/A   Clear
10:55 AM 89.6 °F 92.2 °F 66.2 °F 46% 30.08 in 10.0 mi SW 12.7 mph - N/A   Clear
11:15 AM 89.6 °F 92.2 °F 66.2 °F 46% 30.08 in 7.0 mi SW 12.7 mph - N/A   Clear
11:35 AM 91.4 °F 94.0 °F 66.2 °F 43% 30.07 in 10.0 mi WSW 8.1 mph - N/A   Clear
11:55 AM 91.4 °F 94.0 °F 66.2 °F 43% 30.07 in 10.0 mi SSW 10.4 mph - N/A   Scattered Clouds
12:15 PM 93.2 °F 96.2 °F 66.2 °F 41% 30.06 in 10.0 mi SW 5.8 mph 16.1 mph N/A   Scattered Clouds
12:35 PM 93.2 °F 96.2 °F 66.2 °F 41% 30.06 in 10.0 mi South 10.4 mph - N/A   Scattered Clouds
12:55 PM 93.2 °F 96.2 °F 66.2 °F 41% 30.05 in 10.0 mi South 6.9 mph - N/A   Scattered Clouds
1:35 PM 93.2 °F 94.9 °F 64.4 °F 38% 30.04 in 10.0 mi South 9.2 mph 16.1 mph N/A   Mostly Cloudy
1:55 PM 96.8 °F 99.0 °F 64.4 °F 34% 30.03 in 10.0 mi SSW 8.1 mph - N/A   Mostly Cloudy
2:15 PM 96.8 °F 99.0 °F 64.4 °F 34% 30.02 in 10.0 mi SSW 10.4 mph 16.1 mph N/A   Partly Cloudy
2:35 PM 95.0 °F 97.0 °F 64.4 °F 36% 30.01 in 10.0 mi SSW 9.2 mph - N/A   Scattered Clouds
2:55 PM 96.8 °F 99.0 °F 64.4 °F 34% 30.00 in 10.0 mi SSW 12.7 mph 18.4 mph N/A   Mostly Cloudy
3:15 PM 95.0 °F 97.0 °F 64.4 °F 36% 30.00 in 10.0 mi SSW 8.1 mph - N/A   Mostly Cloudy
3:35 PM 96.8 °F 99.0 °F 64.4 °F 34% 29.99 in 10.0 mi South 9.2 mph 16.1 mph N/A   Mostly Cloudy
3:55 PM 95.0 °F 96.0 °F 62.6 °F 34% 29.98 in 10.0 mi South 6.9 mph - N/A   Mostly Cloudy
4:15 PM 98.6 °F 101.0 °F 64.4 °F 32% 29.97 in 10.0 mi SW 11.5 mph 16.1 mph N/A   Scattered Clouds
4:35 PM 96.8 °F 99.0 °F 64.4 °F 34% 29.97 in 10.0 mi South 9.2 mph - N/A   Partly Cloudy
4:55 PM 98.6 °F 101.0 °F 64.4 °F 32% 29.96 in 10.0 mi SSE 9.2 mph - N/A   Scattered Clouds
5:15 PM 98.6 °F 100.0 °F 62.6 °F 30% 29.96 in 10.0 mi SW 11.5 mph 17.3 mph N/A   Mostly Cloudy
5:35 PM 96.8 °F 98.0 °F 62.6 °F 32% 29.95 in 10.0 mi South 10.4 mph 16.1 mph N/A   Scattered Clouds
5:55 PM 96.8 °F 98.0 °F 62.6 °F 32% 29.95 in 10.0 mi SW 11.5 mph 17.3 mph N/A   Partly Cloudy
6:15 PM 96.8 °F 98.0 °F 62.6 °F 32% 29.94 in 10.0 mi SW 9.2 mph - N/A   Partly Cloudy
6:35 PM 96.8 °F 98.0 °F 62.6 °F 32% 29.94 in 10.0 mi SSW 9.2 mph - N/A   Scattered Clouds
6:55 PM 96.8 °F 98.0 °F 62.6 °F 32% 29.94 in 10.0 mi South 10.4 mph - N/A   Partly Cloudy
7:15 PM 95.0 °F 97.0 °F 64.4 °F 36% 29.94 in 10.0 mi South 9.2 mph - N/A   Clear
7:35 PM 93.2 °F 94.9 °F 64.4 °F 38% 29.94 in 10.0 mi South 8.1 mph - N/A   Clear
7:55 PM 93.2 °F 94.9 °F 64.4 °F 38% 29.94 in 10.0 mi South 8.1 mph - N/A   Clear
8:15 PM 91.4 °F 93.2 °F 64.4 °F 41% 29.94 in 10.0 mi South 5.8 mph - N/A   Clear
8:35 PM 91.4 °F 92.1 °F 62.6 °F 38% 29.94 in 10.0 mi South 5.8 mph - N/A   Clear
8:55 PM 89.6 °F 90.1 °F 62.6 °F 40% 29.94 in 10.0 mi South 4.6 mph - N/A   Clear
9:15 PM 87.8 °F 88.5 °F 62.6 °F 43% 29.94 in 10.0 mi South 5.8 mph - N/A   Clear
9:55 PM 86.0 °F 87.3 °F 64.4 °F 48% 29.95 in 10.0 mi South 5.8 mph - N/A   Clear
10:15 PM 86.0 °F 86.6 °F 62.6 °F 45% 29.95 in 10.0 mi South 4.6 mph - N/A   Clear
10:35 PM 84.2 °F 85.0 °F 62.6 °F 48% 29.95 in 10.0 mi South 5.8 mph - N/A   Clear
10:55 PM 84.2 °F 85.0 °F 62.6 °F 48% 29.95 in 10.0 mi South 4.6 mph - N/A   Clear
11:35 PM 84.2 °F 85.0 °F 62.6 °F 48% 29.96 in 10.0 mi South 4.6 mph - N/A   Clear
11:55 PM 84.2 °F 85.0 °F 62.6 °F 48% 29.96 in 10.0 mi SSW 8.1 mph - N/A   Clear